Location: Delia
(51.6321°N, 112.3740°W)
Time: 04:25:22
(UTC+00:00)

Tiangong - Visible Passes

Search period start: 26 February 2024 00:00
Search period end: 07 March 2024 00:00
Orbit: 375 x 386 km, 41.5° (Epoch: 25 February)

Date Brightness Start Highest point End Pass type
(mag) Time Alt. Az. Time Alt. Az. Time Alt. Az.
02 Mar 0.5 03:05:09 10° SSW 03:05:35 11° S 03:05:35 11° S visible
04 Mar 0.2 02:38:27 10° SSW 02:39:59 13° S 02:40:49 12° SSE visible
05 Mar 0.4 03:13:13 10° SW 03:14:19 12° SSW 03:14:19 12° SSW visible
06 Mar 0.4 02:11:39 10° SSW 02:13:13 13° S 02:14:48 10° SSE visible
